This is the latest recevied weather packets stored in our database for station/object KD2PO-13. If no packets are shown the sender has not sent any weather packets the latest 1 day(s).
| Time | Temp. | Humidity | Pressure | Rain* | Wind** | Luminosity | Snow |
|---|---|---|---|---|---|---|---|
| 1778018664 | 18.89° C | 71% | 0 hPa | 0 mm | 0 m/s | - | - |
| 1778018364 | 18.89° C | 71% | 0 hPa | 0 mm | 0 m/s | - | - |
| 1778018064 | 18.89° C | 71% | 0 hPa | 0 mm | 0 m/s | - | - |
| 1778017764 | 18.89° C | 72% | 0 hPa | 0 mm | 0 m/s | - | - |
| 1778017464 | 18.89° C | 71% | 0 hPa | 0 mm | 0.89 m/s, 341° | - | - |
| 1778017164 | 19.44° C | 69% | 0 hPa | 0 mm | 1.79 m/s, 333° | - | - |
| 1778016864 | 19.44° C | 68% | 0 hPa | 0 mm | 0.89 m/s, 336° | - | - |
| 1778016563 | 19.44° C | 68% | 0 hPa | 0 mm | 0.45 m/s, 322° | - | - |
| 1778016263 | 19.44° C | 69% | 0 hPa | 0 mm | 1.34 m/s, 337° | - | - |
| 1778015964 | 20° C | 68% | 0 hPa | 0 mm | 1.79 m/s, 340° | - | - |
| 1778015663 | 20.56° C | 65% | 0 hPa | 0 mm | 2.24 m/s, 335° | - | - |
| 1778015363 | 21.11° C | 65% | 0 hPa | 0 mm | 2.24 m/s, 282° | - | - |
| 1778015063 | 21.11° C | 66% | 0 hPa | 0 mm | 0.45 m/s, 268° | - | - |
| 1778014763 | 21.11° C | 67% | 0 hPa | 0 mm | 0.89 m/s, 235° | - | - |
| 1778014463 | 20.56° C | 65% | 0 hPa | 0 mm | 2.24 m/s, 229° | - | - |
| 1778014163 | 20.56° C | 65% | 0 hPa | 0 mm | 1.79 m/s, 236° | - | - |
| 1778013564 | 20.56° C | 66% | 0 hPa | 0 mm | 2.68 m/s, 268° | - | - |
| 1778012964 | 20.56° C | 68% | 0 hPa | 0 mm | 1.79 m/s, 221° | - | - |
| 1778012664 | 20.56° C | 70% | 0 hPa | 0 mm | 1.79 m/s, 164° | - | - |
| 1778012364 | 20° C | 69% | 0 hPa | 0.25 mm | 2.24 m/s, 208° | - | - |
| 1778012064 | 19.44° C | 71% | 0 hPa | 0.25 mm | 2.24 m/s, 167° | - | - |
| 1778011764 | 19.44° C | 73% | 0 hPa | 0.25 mm | 2.24 m/s, 185° | - | - |
| 1778011463 | 19.44° C | 75% | 0 hPa | 0.25 mm | 2.68 m/s, 182° | - | - |
| 1778010863 | 18.33° C | 76% | 0 hPa | 0.25 mm | 3.58 m/s, 173° | - | - |
| 1778010563 | 18.33° C | 77% | 0 hPa | 0.25 mm | 4.02 m/s, 167° | - | - |
* Rain latest hour (hover to see other rain measurements)
** Current wind speed in m/s (hover to see current wind gust speed)